This is the latest recevied weather packets stored in our database for station/object K3BAY-1. If no packets are shown the sender has not sent any weather packets the latest 10 day(s).
| Time | Temp. | Humidity | Pressure | Rain* | Wind** | Luminosity | Snow |
|---|---|---|---|---|---|---|---|
| 1777562138 | 18.33° C | 57% | 1008.4 hPa | 0 mm | - | 99 W/m² | - |
| 1777561836 | 18.89° C | 61% | 1008.1 hPa | 0 mm | - | 112 W/m² | - |
| 1777561532 | 18.89° C | 61% | 1008.1 hPa | 0 mm | - | 112 W/m² | - |
| 1777561228 | 17.78° C | 63% | 1008.1 hPa | 0 mm | - | 54 W/m² | - |
| 1777560927 | 17.22° C | 67% | 1008.1 hPa | 0 mm | - | 75 W/m² | - |
| 1777560624 | 17.22° C | 67% | 1008.1 hPa | 0 mm | - | 75 W/m² | - |
| 1777560322 | 17.22° C | 68% | 1007.7 hPa | 0 mm | - | 72 W/m² | - |
| 1777560020 | 17.22° C | 68% | 1007.7 hPa | 0 mm | - | 72 W/m² | - |
| 1777559715 | 17.22° C | 68% | 1007.7 hPa | 0 mm | - | 67 W/m² | - |
| 1777559412 | 17.78° C | 71% | 1007.4 hPa | 0 mm | - | 115 W/m² | - |
| 1777559109 | 16.67° C | 74% | 1007.4 hPa | 0 mm | - | 94 W/m² | - |
| 1777558804 | 16.67° C | 73% | 1007.4 hPa | 0 mm | - | 74 W/m² | - |
| 1777558499 | 16.67° C | 73% | 1007.4 hPa | 0 mm | - | 74 W/m² | - |
| 1777558196 | 16.11° C | 75% | 1007.7 hPa | 0 mm | - | 95 W/m² | - |
| 1777557892 | 16.11° C | 75% | 1007.7 hPa | 0 mm | - | 95 W/m² | - |
| 1777557590 | 16.11° C | 75% | 1007.4 hPa | 0 mm | - | 90 W/m² | - |
| 1777557285 | 16.67° C | 75% | 1007.7 hPa | 0 mm | - | 94 W/m² | - |
| 1777556982 | 15.56° C | 78% | 1007.4 hPa | 0 mm | - | 74 W/m² | - |
| 1777556677 | 15.56° C | 78% | 1007.4 hPa | 0 mm | - | 74 W/m² | - |
| 1777556373 | 16.11° C | 77% | 1007.4 hPa | 0 mm | - | 49 W/m² | - |
| 1777556068 | 15.56° C | 77% | 1007.4 hPa | 0 mm | - | 50 W/m² | - |
| 1777555681 | 15° C | 81% | 1007.4 hPa | 0 mm | - | 44 W/m² | - |
| 1777555377 | 15° C | 81% | 1007.4 hPa | 0 mm | - | 44 W/m² | - |
| 1777555074 | 15° C | 82% | 1007.7 hPa | 0 mm | - | 39 W/m² | - |
| 1777554772 | 14.44° C | 83% | 1007.4 hPa | 0 mm | - | 41 W/m² | - |
* Rain latest hour (hover to see other rain measurements)
** Current wind speed in m/s (hover to see current wind gust speed)